Temp
59 58 59 59 60 59 59 60 60 59 59 59 59 58 57 57 56 57 55 54 55 54
61 59 59 59 59 59 59 60 60 58 57 57 58 57 57 56 56 57 56 56 55 54
62 62 61 60 58 58 58 58 57 56 56 56 56 57 56 55 56 56 56 56 55 55
62 62 62 60 60 58 58 57 56 56 56 55 55 56 55 55 55 54 55 55 54 53
62 62 60 60 60 60 58 58 57 57 56 56 56 56 55 54 55 54 53 54 54 53
60 60 60 60 61 60 59 59 57 56 55 55 55 55 55 55 55 54 55 55 54 53
60 59 60 61 60 60 60 58 58 56 55 54 55 55 55 54 54 54 54 54 54 53
60 59 59 58 59 59 59 59 59 57 55 54 54 55 54 53 53 53 53 53 53 52
58 58 56 57 57 58 57 57 58 57 55 54 54 53 52 52 53 52 51 51 53 52
57 56 55 56 56 56 56 57 56 56 56 54 55 53 53 52 52 52 52 51 52 52
57 56 56 56 55 56 57 56 56 55 55 54 55 53 52 53 53 53 53 52 52 52
58 56 56 54 55 56 56 56 55 55 55 54 54 52 52 52 53 53 53 53 52 52
58 57 56 56 55 56 56 55 56 54 55 54 54 53 52 53 54 52 52 52 51 50
57 56 56 56 55 55 54 54 53 53 54 54 54 54 52 52 54 53 53 51 50 51
MSLP
1022.74 1023.27 1023.72 1024.11 1024.29 1024.48 1024.61 1024.76 1025.15 1025.44 1025.67 1025.78 1025.94 1026.26 1026.49 1026.62 1026.66 1026.62 1026.69 1026.69 1026.68 1026.58
1021.46 1022.04 1022.30 1022.90 1023.47 1023.78 1023.99 1024.15 1024.48 1024.90 1025.19 1025.37 1025.48 1025.64 1025.84 1025.87 1025.85 1025.93 1026.04 1026.04 1026.10 1026.14
1020.44 1020.90 1021.40 1021.93 1022.26 1022.72 1023.17 1023.61 1023.99 1024.39 1024.63 1024.83 1024.98 1025.12 1025.27 1025.24 1025.20 1025.23 1025.30 1025.39 1025.44 1025.46
1018.96 1019.69 1020.35 1020.73 1021.06 1021.58 1022.21 1022.68 1023.13 1023.51 1023.89 1024.19 1024.37 1024.46 1024.53 1024.61 1024.61 1024.56 1024.58 1024.66 1024.78 1024.81
1018.18 1018.61 1019.18 1019.51 1019.94 1020.51 1021.12 1021.71 1022.15 1022.51 1022.99 1023.35 1023.57 1023.74 1023.82 1023.89 1023.93 1023.95 1023.90 1023.89 1024.00 1024.04
1017.31 1017.74 1018.03 1018.48 1019.04 1019.53 1020.05 1020.50 1021.13 1021.68 1022.01 1022.41 1022.70 1022.98 1023.18 1023.25 1023.25 1023.24 1023.17 1023.17 1023.25 1023.31
1016.55 1016.95 1017.37 1017.81 1018.20 1018.62 1019.01 1019.48 1019.95 1020.40 1020.84 1021.18 1021.61 1021.96 1022.21 1022.49 1022.61 1022.61 1022.59 1022.62 1022.68 1022.74
1015.89 1016.45 1016.78 1017.19 1017.44 1017.95 1018.21 1018.32 1018.65 1019.17 1019.77 1020.25 1020.63 1020.78 1021.25 1021.50 1021.62 1021.82 1021.91 1022.04 1022.09 1022.14
1015.92 1016.22 1016.53 1016.63 1016.75 1017.14 1017.46 1017.67 1017.82 1018.00 1018.39 1018.76 1019.27 1019.63 1020.07 1020.56 1020.69 1020.84 1021.08 1021.18 1021.28 1021.49
1015.21 1015.32 1015.82 1016.23 1016.26 1016.22 1016.47 1016.67 1016.77 1017.03 1017.28 1017.49 1017.75 1018.37 1018.95 1019.35 1019.73 1019.90 1020.07 1020.33 1020.45 1020.60
1014.47 1014.60 1014.83 1015.12 1015.34 1015.61 1015.73 1015.80 1015.86 1015.98 1016.23 1016.54 1016.67 1016.92 1017.50 1018.11 1018.47 1018.65 1018.89 1019.33 1019.58 1019.74
1014.56 1014.39 1014.24 1014.19 1014.08 1014.10 1014.16 1014.52 1014.76 1015.04 1015.32 1015.50 1015.76 1016.01 1016.44 1016.95 1017.26 1017.34 1017.46 1018.02 1018.50 1018.80
1013.64 1014.02 1014.21 1014.12 1014.11 1013.88 1013.94 1013.57 1013.79 1013.90 1013.88 1014.05 1014.47 1014.98 1015.30 1015.62 1015.83 1016.02 1016.36 1016.88 1017.32 1017.74
1013.07 1012.87 1012.85 1013.06 1013.27 1013.47 1013.30 1013.41 1013.27 1013.09 1013.19 1013.20 1013.34 1013.57 1014.25 1014.68 1014.57 1014.78 1015.22 1015.59 1015.99 1016.48
Wind_Speed
18 12 11 12 10 9 9 9 10 11 11 12 11 9 9 8 8 8 8 10 8 7
18 18 14 15 13 10 11 9 10 11 11 11 11 11 10 8 9 9 9 9 9 8
18 18 16 14 15 14 12 12 11 12 12 12 12 12 11 10 10 10 8 8 9 9
17 18 17 16 16 15 14 14 13 13 12 12 12 12 12 12 11 11 11 10 10 10
16 16 17 18 17 15 15 14 14 13 13 13 13 13 13 13 12 12 12 12 11 11
16 17 17 18 16 16 15 15 14 14 14 14 14 14 14 14 13 13 13 12 11 11
15 16 15 15 16 16 16 15 16 15 15 15 14 14 14 14 14 13 12 12 12 12
13 13 13 14 15 15 15 15 16 15 15 15 14 12 15 14 14 14 13 12 12 12
10 10 12 13 14 14 15 16 16 16 16 16 12 19 21 17 13 14 13 12 12 12
10 11 12 12 13 14 16 15 17 17 17 17 17 22 23 23 14 12 13 13 12 11
10 11 10 12 13 14 13 15 15 16 17 16 15 23 25 24 16 15 15 14 13 13
8 10 11 12 13 13 13 14 14 14 16 17 16 24 25 21 15 15 16 14 14 13
7 9 11 11 12 11 12 13 11 14 16 19 17 20 25 22 12 15 11 12 13 20
7 9 10 10 10 11 11 11 12 14 13 15 16 17 23 27 15 12 11 10 10 10
Wind_Direction
216 217 220 223 224 226 226 225 221 216 221 225 224 224 230 238 243 251 251 256 259 262
215 215 215 217 220 223 227 229 224 220 221 224 225 223 226 234 238 239 249 253 252 256
219 219 219 217 216 216 220 219 220 221 223 225 225 225 226 232 237 242 243 247 251 254
218 218 218 219 217 216 215 215 217 220 223 224 227 226 228 232 238 239 243 242 245 252
221 215 219 220 217 214 215 216 218 217 221 226 228 229 230 233 233 237 240 242 241 245
217 219 219 221 219 213 215 216 213 219 221 224 227 229 232 235 237 239 242 243 243 244
221 220 222 224 219 216 212 215 216 215 220 221 224 227 229 232 238 241 242 242 240 241
221 224 221 223 222 221 219 216 217 217 218 222 224 224 224 227 232 238 241 240 237 236
229 227 228 226 222 223 223 222 220 218 220 217 219 225 220 224 228 232 238 241 238 236
223 223 226 231 228 225 227 225 223 224 222 223 221 220 220 219 227 233 234 235 236 236
223 227 224 225 229 233 232 230 230 227 226 226 225 219 217 220 222 230 233 236 234 236
249 243 234 232 229 227 224 228 229 230 230 229 231 223 217 215 221 226 230 228 230 229
231 245 256 255 252 243 240 235 233 234 230 229 232 228 219 212 215 224 225 226 226 223
237 235 238 247 242 248 244 245 241 240 240 235 231 230 221 218 216 219 222 219 214 216